This is the latest recevied weather packets stored in our database for station/object CE3TL-WX. If no packets are shown the sender has not sent any weather packets the latest 10 day(s).
| Time | Temp. | Humidity | Pressure | Rain* | Wind** | Luminosity | Snow |
|---|---|---|---|---|---|---|---|
| 1778003629 | 21.11° C | 31% | 1019.5 hPa | - | - | - | - |
| 1778003095 | 21.11° C | 33% | 1019.5 hPa | - | - | - | - |
| 1778002561 | 21.11° C | 33% | 1019.4 hPa | - | - | - | - |
| 1778002027 | 21.11° C | 36% | 1019.6 hPa | - | - | - | - |
| 1778001492 | 21.11° C | 34% | 1019.4 hPa | - | - | - | - |
| 1778000958 | 20.56° C | 35% | 1019.5 hPa | - | - | - | - |
| 1778000425 | 20.56° C | 35% | 1019.4 hPa | - | - | - | - |
| 1777999890 | 20.56° C | 37% | 1019.6 hPa | - | - | - | - |
| 1777999354 | 20.56° C | 36% | 1019.7 hPa | - | - | - | - |
| 1777998820 | 20° C | 37% | 1019.8 hPa | - | - | - | - |
| 1777998286 | 20° C | 38% | 1019.8 hPa | - | - | - | - |
| 1777997752 | 20° C | 38% | 1019.8 hPa | - | - | - | - |
| 1777997219 | 19.44° C | 38% | 1019.7 hPa | - | - | - | - |
| 1777996686 | 19.44° C | 39% | 1019.7 hPa | - | - | - | - |
| 1777996151 | 18.89° C | 39% | 1019.9 hPa | - | - | - | - |
| 1777995617 | 18.33° C | 39% | 1020.1 hPa | - | - | - | - |
| 1777995083 | 18.33° C | 38% | 1020.2 hPa | - | - | - | - |
| 1777994549 | 18.33° C | 38% | 1020.3 hPa | - | - | - | - |
| 1777994016 | 18.33° C | 39% | 1020.5 hPa | - | - | - | - |
| 1777993481 | 17.78° C | 39% | 1020.7 hPa | - | - | - | - |
| 1777992946 | 17.78° C | 39% | 1020.8 hPa | - | - | - | - |
| 1777992413 | 17.78° C | 40% | 1020.9 hPa | - | - | - | - |
| 1777991879 | 17.22° C | 41% | 1020.8 hPa | - | - | - | - |
| 1777991345 | 16.67° C | 43% | 1020.9 hPa | - | - | - | - |
| 1777990811 | 16.67° C | 42% | 1021 hPa | - | - | - | - |
* Rain since midnight (hover to see other rain measurements)
** Current wind speed in m/s (hover to see current wind gust speed)